Location: Olmeneta
(45.2333°N, 10.0167°E)
Time: 13:27:34
(UTC+00:00)

Resurs 01 Rocket - Pass Details

Date: 03 March 2021
Orbit: 635 x 643 km, 98.0° (Epoch: 15 April)

Event Time Altitude Azimuth Distance (km) Brightness Sun altitude
Exits shadow 20:50:15 15° 315° (NW) 1,708 4.4 -37.8°
Drops below altitude 10° 20:51:15 10° 324° (NW) 2,032 4.9 -38.0°
Sets 20:53:45 0° 336° (NNW) 2,946 5.7 -38.3°
